Starlink 2704

operational
NORAD ID: 48643 Int'l Des: 2021-044 Owner: SPXS Country: US Constellation: starlink
LEOCIRCULARSTARLINK_TYPE

About Starlink 2704

Description loading...

Live Position

Loading 3D Globe...

Upcoming Passes

Altitude History

Altitude vs Time

uPlot chart will show altitude changes over time

Two-Line Element Set

1 48643U 21044F 25350.71186993 .00000519 00000-0 53726-4 0 9997
2 48643 53.0559 134.1140 0001327 99.9850 260.1288 15.06395999251204
Epoch: Dec 16, 2025 • Age: 21 hours

Current Status

Altitude 552.8 km
Velocity 7.59 km/s
Sub-Earth Point 52.92°N, 87.02°W
Launch Date May 26, 2021
Age 4.5 years
Type internet

Technical Details

Classification Payload
Mass 260.00 kg
Dry Mass 248.00 kg
Total Mass 260.00 kg
Length 0.20 m
Diameter 2.80 m
Span 9.00 m
Shape Box + pan
Manufacturer SPXS
Bus Type Starlink
Phase Status In Orbit
Owner/State SPXS/US

Large Constellations

Loading constellations...